TimeEST,TemperatureF,Dew PointF,Humidity,Sea Level PressureIn,VisibilityMPH,Wind Direction,Wind SpeedMPH,Gust SpeedMPH,PrecipitationIn,Events,Conditions,WindDirDegrees,DateUTC
12:51 AM,39.9,30.0,68,30.36,10.0,SE,5.8,-,N/A,,Partly Cloudy,140,2011-12-04 05:51:00
1:51 AM,37.0,28.9,73,30.35,10.0,SE,3.5,-,N/A,,Partly Cloudy,130,2011-12-04 06:51:00
2:51 AM,37.0,28.9,73,30.35,10.0,SE,4.6,-,N/A,,Partly Cloudy,140,2011-12-04 07:51:00
3:51 AM,37.0,28.9,73,30.33,10.0,SSE,4.6,-,N/A,,Partly Cloudy,160,2011-12-04 08:51:00
4:51 AM,36.0,28.9,76,30.32,10.0,SSE,4.6,-,N/A,,Partly Cloudy,160,2011-12-04 09:51:00
5:51 AM,35.6,26.6,70,30.27,10.0,Calm,Calm,-,N/A,,Partly Cloudy,0,2011-12-04 10:51:00
6:51 AM,37.9,27.0,65,30.33,10.0,Calm,Calm,-,N/A,,Mostly Cloudy,0,2011-12-04 11:51:00
7:51 AM,39.0,27.0,62,30.32,10.0,SSE,5.8,-,N/A,,Mostly Cloudy,160,2011-12-04 12:51:00
8:51 AM,42.1,27.0,55,30.33,10.0,South,5.8,-,N/A,,Mostly Cloudy,170,2011-12-04 13:51:00
9:51 AM,46.9,27.0,46,30.34,10.0,South,5.8,-,N/A,,Mostly Cloudy,170,2011-12-04 14:51:00
10:51 AM,55.0,23.0,29,30.33,10.0,SSW,10.4,16.1,N/A,,Mostly Cloudy,210,2011-12-04 15:51:00
11:51 AM,57.9,25.0,28,30.30,10.0,SSW,15.0,19.6,N/A,,Mostly Cloudy,210,2011-12-04 16:51:00
12:51 PM,60.1,30.0,32,30.26,10.0,SSW,13.8,17.3,N/A,,Mostly Cloudy,210,2011-12-04 17:51:00
1:51 PM,60.1,34.0,38,30.25,10.0,SSW,10.4,21.9,N/A,,Overcast,210,2011-12-04 18:51:00
2:51 PM,60.1,35.1,39,30.24,10.0,SSW,10.4,-,N/A,,Overcast,200,2011-12-04 19:51:00
3:51 PM,60.1,36.0,41,30.24,10.0,South,5.8,-,N/A,,Overcast,180,2011-12-04 20:51:00
4:51 PM,59.0,35.1,41,30.25,10.0,South,5.8,-,N/A,,Mostly Cloudy,190,2011-12-04 21:51:00
5:51 PM,57.9,35.1,42,30.26,10.0,SSW,4.6,-,N/A,,Overcast,200,2011-12-04 22:51:00
6:51 PM,57.0,36.0,45,30.27,10.0,South,3.5,-,N/A,,Overcast,170,2011-12-04 23:51:00
7:51 PM,55.9,35.1,45,30.27,10.0,Calm,Calm,-,N/A,,Overcast,0,2011-12-05 00:51:00
8:51 PM,55.0,35.1,47,30.28,10.0,SSE,3.5,-,N/A,,Overcast,150,2011-12-05 01:51:00
9:51 PM,54.0,34.0,47,30.27,10.0,Calm,Calm,-,N/A,,Overcast,0,2011-12-05 02:51:00
10:51 PM,52.0,33.1,49,30.25,10.0,SSE,4.6,-,N/A,,Mostly Cloudy,160,2011-12-05 03:51:00
11:51 PM,51.1,30.0,44,30.24,10.0,South,5.8,-,N/A,,Overcast,170,2011-12-05 04:51:00